Location: Bieujac
(44.5398°N, 0.1549°W)
Time: 23:24:28
(UTC+00:00)

Cosmos 2219 Rocket - Pass Details

Date: 17 November 2019
Orbit: 827 x 847 km, 71.0° (Epoch: 09 December)

Event Time Altitude Azimuth Distance (km) Brightness Sun altitude
Rises 05:39:13 0° 341° (NNW) 3,402 5.0 -14.2°
Reaches altitude 10° 05:42:01 10° 353° (N) 2,467 4.4 -13.7°
Maximum altitude 05:46:52 28° 52° (NE) 1,530 4.0 -12.9°
Drops below altitude 10° 05:51:42 10° 111° (ESE) 2,465 6.1 -12.1°
Sets 05:54:29 0° 122° (ESE) 3,399 7.0 -11.6°
